Date String (YYYY-MM-DD hh:mm:ss) UTC,Instrument flags,Ambient pressure (hPa),Sample flow (lpm),Bypass flow (lpm),Sample temperature (°C),Ambient temperature (°C),ASC tube jacket temperature (°C),LED temperature (°C),Box temperature (°C),Sample RH (%),Span deviation,Mass concentration (μg/m³),Mass concentration (μg/m³),Mass concentration (μg/m³)
DateTimeUTC,F1_M11,P_M11,Q1_M11,Q2_M11,T1_M11,T2_M11,T3_M11,T4_M11,T5_M11,U1_M11,ZSPAN_M11,X0_M11,X2_M11,X1_M11
2021-11-23 04:00:00,,0827.3,5.00,0.00,28.3,27.4,00.0,37.5,30.0,06.0,0000.0,0011.23,0003.43,0002.55
2021-11-23 04:01:00,,0827.5,5.01,0.00,28.3,27.4,00.0,37.4,30.0,06.0,0000.0,0010.30,0003.25,0002.34
2021-11-23 04:02:00,,0827.5,5.00,0.00,28.3,27.4,00.0,37.4,30.0,06.1,0000.0,0010.27,0003.13,0002.16
2021-11-23 04:03:00,,0827.0,5.01,0.00,28.3,27.4,00.0,37.4,30.0,06.0,0000.0,0009.99,0002.88,0001.93
2021-11-23 04:04:00,,0827.2,5.01,0.00,28.3,27.4,00.0,37.4,29.9,06.4,0000.0,0009.18,0002.72,0001.78
2021-11-23 04:05:00,,0827.0,4.99,0.00,28.3,27.4,00.0,37.4,30.0,06.4,0000.0,0010.04,0002.77,0001.76
2021-11-23 04:06:00,,0827.1,5.01,0.00,28.3,27.4,00.0,37.4,30.0,06.1,0000.0,0010.05,0002.78,0001.77
2021-11-23 04:07:00,,0827.1,4.99,0.00,28.3,27.4,00.0,37.4,29.9,05.9,0000.0,0008.89,0002.69,0001.75
2021-11-23 04:08:00,,0827.0,5.01,0.00,28.3,27.4,00.0,37.4,30.0,05.9,0000.0,0008.74,0002.64,0001.71
2021-11-23 04:09:00,,0827.0,5.00,0.00,28.2,27.4,00.0,37.4,30.0,06.0,0000.0,0008.94,0002.56,0001.70
2021-11-23 04:10:00,,0827.0,4.99,0.00,28.2,27.3,00.0,37.4,29.9,05.9,0000.0,0009.25,0002.47,0001.67
2021-11-23 04:11:00,,0827.0,5.00,0.00,28.2,27.3,00.0,37.3,29.9,05.9,0000.0,0009.38,0002.42,0001.63
2021-11-23 04:12:00,,0827.1,5.00,0.00,28.2,27.3,00.0,37.3,29.9,06.0,0000.0,0009.46,0002.45,0001.63
2021-11-23 04:13:00,,0827.0,5.01,0.00,28.2,27.3,00.0,37.3,29.9,06.1,0000.0,0009.31,0002.50,0001.64
2021-11-23 04:14:00,,0827.2,4.99,0.00,28.2,27.3,00.0,37.3,29.9,05.8,0000.0,0008.76,0002.43,0001.62
2021-11-23 04:15:00,,0827.0,4.99,0.00,28.2,27.3,00.0,37.3,29.9,05.8,0000.0,0008.57,0002.30,0001.53
2021-11-23 04:16:00,,0826.9,5.01,0.00,28.2,27.3,00.0,37.3,29.9,05.8,0000.0,0007.30,0002.07,0001.41
2021-11-23 04:17:00,,0826.8,4.99,0.00,28.2,27.3,00.0,37.3,29.9,05.8,0000.0,0006.21,0001.99,0001.35
2021-11-23 04:18:00,,0827.0,4.99,0.00,28.2,27.3,00.0,37.3,29.9,05.9,0000.0,0006.78,0001.99,0001.34
2021-11-23 04:19:00,,0827.3,5.01,0.00,28.2,27.2,00.0,37.3,29.8,05.8,0000.0,0006.81,0002.01,0001.35
2021-11-23 04:20:00,,0827.1,5.00,0.00,28.2,27.2,00.0,37.3,29.8,05.9,0000.0,0007.07,0002.05,0001.33
2021-11-23 04:21:00,,0827.0,5.00,0.00,28.1,27.2,00.0,37.3,29.8,05.8,0000.0,0007.05,0002.07,0001.30
2021-11-23 04:22:00,,0827.0,5.02,0.00,28.1,27.2,00.0,37.3,29.8,05.8,0000.0,0006.31,0002.03,0001.28
2021-11-23 04:23:00,,0826.8,5.00,0.00,28.1,27.2,00.0,37.2,29.8,05.8,0000.0,0006.15,0001.98,0001.25
2021-11-23 04:24:00,,0826.8,4.99,0.00,28.1,27.2,00.0,37.2,29.8,05.9,0000.0,0005.93,0001.86,0001.21
2021-11-23 04:25:00,,0826.8,5.00,0.00,28.1,27.2,00.0,37.2,29.7,05.9,0000.0,0006.10,0001.85,0001.19
2021-11-23 04:26:00,,0826.8,5.00,0.00,28.1,27.1,00.0,37.2,29.7,05.8,0000.0,0006.23,0001.86,0001.20
2021-11-23 04:27:00,,0826.8,5.00,0.00,28.1,27.1,00.0,37.2,29.7,05.8,0000.0,0006.32,0001.85,0001.19
2021-11-23 04:28:00,,0826.8,5.01,0.00,28.0,27.1,00.0,37.2,29.7,05.8,0000.0,0006.65,0001.84,0001.17
2021-11-23 04:29:00,,0826.7,5.00,0.00,28.0,27.1,00.0,37.2,29.7,05.8,0000.0,0006.14,0001.80,0001.13
2021-11-23 04:30:00,,0826.8,5.00,0.00,28.0,27.1,00.0,37.2,29.7,05.8,0000.0,0005.92,0001.72,0001.11
2021-11-23 04:31:00,,0826.7,5.01,0.00,28.0,27.0,00.0,37.2,29.7,05.8,0000.0,0006.54,0001.66,0001.10
2021-11-23 04:32:00,,0826.7,5.00,0.00,28.0,27.0,00.0,37.1,29.7,05.8,0000.0,0004.81,0001.60,0001.09
2021-11-23 04:33:00,,0826.8,5.00,0.00,28.0,27.0,00.0,37.1,29.7,05.8,0000.0,0004.94,0001.60,0001.09
2021-11-23 04:34:00,,0826.8,5.01,0.00,28.0,27.0,00.0,37.1,29.7,05.7,0000.0,0004.95,0001.59,0001.08
2021-11-23 04:35:00,,0826.7,4.99,0.00,28.0,27.0,00.0,37.1,29.7,05.7,0000.0,0004.54,0001.49,0001.04
2021-11-23 04:36:00,,0826.8,4.99,0.00,28.0,27.0,00.0,37.1,29.7,05.7,0000.0,0004.07,0001.41,0001.02
2021-11-23 04:37:00,,0826.7,5.01,0.00,28.0,27.1,00.0,37.1,29.7,05.7,0000.0,0003.81,0001.34,0000.98
2021-11-23 04:38:00,,0826.7,5.00,0.00,28.0,27.0,00.0,37.1,29.7,05.7,0000.0,0004.46,0001.28,0000.96
2021-11-23 04:39:00,,0826.7,5.00,0.00,28.0,27.0,00.0,37.1,29.6,05.7,0000.0,0004.01,0001.21,0000.94
2021-11-23 04:40:00,,0826.7,4.99,0.00,28.0,27.0,00.0,37.1,29.6,05.7,0000.0,0003.68,0001.13,0000.92
2021-11-23 04:41:00,,0826.7,5.00,0.00,27.9,26.9,00.0,37.1,29.6,05.7,0000.0,0003.48,0001.07,0000.90
2021-11-23 04:42:00,,0826.7,5.01,0.00,27.9,26.9,00.0,37.0,29.6,05.7,0000.0,0002.50,0001.05,0000.87
2021-11-23 04:43:00,,0826.6,5.00,0.00,27.9,26.9,00.0,37.0,29.6,05.7,0000.0,0002.56,0001.03,0000.84
2021-11-23 04:44:00,,0826.5,4.99,0.00,27.9,26.9,00.0,37.0,29.6,05.8,0000.0,0002.59,0001.02,0000.84
2021-11-23 04:45:00,,0826.5,4.99,0.00,27.9,26.9,00.0,37.0,29.6,05.7,0000.0,0002.72,0001.01,0000.84
2021-11-23 04:46:00,,0826.5,5.02,0.00,27.9,26.9,00.0,37.0,29.6,05.7,0000.0,0002.77,0001.01,0000.83
2021-11-23 04:47:00,,0826.5,4.97,0.00,27.9,26.9,00.0,37.0,29.6,05.7,0000.0,0002.73,0000.99,0000.82
2021-11-23 04:48:00,,0826.6,5.00,0.00,27.9,26.9,00.0,37.0,29.6,05.7,0000.0,0002.74,0000.98,0000.81
2021-11-23 04:49:00,,0826.5,5.01,0.00,27.9,26.9,00.0,37.0,29.6,05.7,0000.0,0001.97,0000.99,0000.81
2021-11-23 04:50:00,,0826.5,4.99,0.00,27.9,26.9,00.0,37.0,29.5,05.7,0000.0,0002.05,0001.01,0000.81
2021-11-23 04:51:00,,0826.5,5.01,0.00,27.8,26.9,00.0,37.0,29.5,05.7,0000.0,0002.16,0001.02,0000.81
2021-11-23 04:52:00,,0826.5,4.98,0.00,27.8,26.9,00.0,36.9,29.4,05.8,0000.0,0002.25,0001.05,0000.81
2021-11-23 04:53:00,,0826.5,5.01,0.00,27.8,26.8,00.0,36.9,29.5,05.8,0000.0,0002.84,0001.07,0000.82
2021-11-23 04:54:00,,0826.5,5.01,0.00,27.8,26.8,00.0,36.9,29.5,05.9,0000.0,0003.61,0001.11,0000.82
2021-11-23 04:55:00,,0826.5,4.99,0.00,27.8,26.8,00.0,36.9,29.5,06.0,0000.0,0004.47,0001.13,0000.83
2021-11-23 04:56:00,,0826.5,5.01,0.00,27.8,26.8,00.0,36.9,29.5,05.8,0000.0,0004.57,0001.17,0000.84
2021-11-23 04:57:00,,0826.5,4.99,0.00,27.8,26.8,00.0,36.9,29.5,05.8,0000.0,0004.52,0001.17,0000.84
2021-11-23 04:58:00,,0826.4,4.99,0.00,27.8,26.8,00.0,36.9,29.5,05.9,0000.0,0004.61,0001.22,0000.85
2021-11-23 04:59:00,,0826.4,5.01,0.00,27.8,26.8,00.0,36.9,29.5,05.9,0000.0,0004.61,0001.25,0000.87
